FW0434 Weather Reports


Display with metric or nautical units.
time (UTC)temp
F
wind
direction
speed
MPH
gust
MPH
rain 1hr
in
rain 24hr
in
rain mn
in
humidity
%
barometer
mb
20260906191545 75 148 6.0 12.0 0.00 0.00 0.00 93 1013.4
20260906190007 75 134 8.0 11.0 0.00 0.00 0.00 92 1013.3
20260906184525 75 141 5.0 9.0 0.00 0.00 0.00 90 1013.6
20260906183037 75 191 5.0 10.0 0.00 0.00 0.00 90 1013.9
20260906181502 76 152 5.0 11.0 0.00 0.00 0.00 89 1014.1
20260906180022 76 175 7.0 12.0 0.00 0.00 0.00 89 1014.0
20260906174543 75 123 9.0 13.0 0.00 0.00 0.00 89 1014.1
20260906173103 75 113 8.0 13.0 0.00 0.00 0.00 89 1014.1
20260906171505 75 124 8.0 12.0 0.00 0.00 0.00 90 1014.0
20260906170011 75 146 7.0 11.0 0.00 0.00 0.00 90 1014.0
20260906164519 75 119 6.0 9.0 0.00 0.00 0.00 90 1013.9
20260906163031 75 153 6.0 15.0 0.00 0.00 0.00 90 1014.2
20260906161549 74 138 11.0 14.0 0.00 0.00 0.00 90 1014.0
20260906160005 74 138 8.0 13.0 0.00 0.00 0.00 91 1014.2
20260906154535 74 150 10.0 17.0 0.00 0.00 0.00 91 1014.2
20260906153036 73 131 7.0 12.0 0.00 0.00 0.00 93 1014.3
20260906151539 73 130 7.0 10.0 0.00 0.00 0.00 93 1014.5
20260906150051 73 115 4.0 9.0 0.00 0.00 0.00 94 1014.5
20260906144506 72 135 6.0 11.0 0.00 0.00 0.00 94 1014.2
20260906143011 72 131 7.0 12.0 0.00 0.00 0.00 95 1014.4
20260906141521 72 136 8.0 11.0 0.00 0.00 0.00 95 1014.4
20260906140041 71 113 7.0 11.0 0.00 0.00 0.00 95 1014.3
20260906134544 71 144 7.0 12.0 0.00 0.00 0.00 95 1014.4
20260906133053 71 128 7.0 11.0 0.00 0.00 0.00 95 1014.5
20260906131506 71 360 7.0 12.0 0.00 0.00 0.00 95 1014.2
20260906130037 71 152 6.0 12.0 0.00 0.00 0.00 95 1014.2
20260906124547 71 136 6.0 11.0 0.00 0.00 0.00 95 1014.0
20260906123101 71 118 4.0 10.0 0.00 0.00 0.00 95 1013.9
20260906121507 71 120 4.0 8.0 0.00 0.00 0.00 95 1014.1
20260906120025 71 121 6.0 10.0 0.00 0.00 0.00 95 1013.9
20260906114548 71 120 5.0 9.0 0.00 0.00 0.00 95 1013.9
20260906113102 71 128 3.0 7.0 0.00 0.00 0.00 94 1014.1
20260906111525 71 127 4.0 7.0 0.00 0.00 0.00 94 1014.2
20260906110041 71 142 4.0 8.0 0.00 0.00 0.00 95 1014.0
20260906104553 71 142 5.0 10.0 0.00 0.00 0.00 95 1014.0
20260906103105 71 121 5.0 9.0 0.00 0.00 0.00 95 1014.1
20260906101522 71 360 6.0 9.0 0.00 0.00 0.00 95 1014.1
20260906100034 71 137 4.0 9.0 0.00 0.00 0.00 95 1014.1
20260906094542 71 145 6.0 10.0 0.00 0.00 0.00 95 1013.9
20260906093113 71 107 5.0 8.0 0.00 0.00 0.00 95 1013.9
20260906091506 71 126 5.0 9.0 0.00 0.00 0.00 94 1013.8
20260906090012 71 167 5.0 9.0 0.00 0.00 0.00 94 1013.6
20260906084525 71 134 5.0 11.0 0.00 0.00 0.00 94 1013.6
20260906083039 71 131 5.0 10.0 0.00 0.00 0.00 94 1013.3
20260906081550 71 133 8.0 12.0 0.00 0.00 0.00 94 1013.3
20260906080055 71 121 5.0 10.0 0.00 0.00 0.00 94 1013.2
20260906074515 71 130 5.0 11.0 0.00 0.00 0.00 93 1012.9
20260906073016 72 121 6.0 12.0 0.00 0.00 0.00 93 1013.4
20260906071524 72 123 7.0 12.0 0.00 0.00 0.00 93 1013.5
20260906070032 72 134 5.0 9.0 0.00 0.00 0.00 92 1013.8
20260906064543 73 130 6.0 11.0 0.00 0.00 0.00 92 1013.5
20260906063050 73 137 5.0 9.0 0.00 0.00 0.00 92 1013.5
20260906061600 73 109 4.0 9.0 0.00 0.00 0.00 92 1014.0
20260906060008 73 150 4.0 8.0 0.00 0.00 0.00 91 1014.1
20260906054515 73 109 3.0 7.0 0.00 0.00 0.00 91 1014.3
20260906053030 73 111 3.0 9.0 0.00 0.00 0.00 91 1014.4
20260906051534 74 99 3.0 7.0 0.00 0.00 0.00 91 1013.9
20260906050058 74 130 4.0 10.0 0.00 0.00 0.00 91 1013.8
20260906044550 74 91 4.0 7.0 0.00 0.00 0.00 91 1013.9
20260906043112 74 112 2.0 7.0 0.00 0.00 0.00 91 1013.9
20260906041523 74 126 2.0 7.0 0.00 0.00 0.00 90 1014.0
20260906040028 75 67 3.0 8.0 0.00 0.00 0.00 90 1013.9
20260906034547 75 129 4.0 8.0 0.00 0.00 0.00 89 1013.7
20260906033101 75 117 4.0 7.0 0.00 0.00 0.00 89 1013.7
20260906031519 76 135 3.0 7.0 0.00 0.00 0.00 89 1013.8
20260906030033 76 121 3.0 6.0 0.00 0.00 0.00 89 1013.6
20260906024544 76 101 3.0 7.0 0.00 0.00 0.00 89 1013.5
20260906023107 77 13 2.0 7.0 0.00 0.00 0.00 88 1013.2
20260906021502 77 142 4.0 8.0 0.00 0.00 0.00 87 1013.1
20260906020022 77 105 3.0 7.0 0.00 0.00 0.00 88 1013.1
20260906014544 77 132 3.0 7.0 0.00 0.00 0.00 88 1013.2
20260906013009 77 133 3.0 5.0 0.00 0.00 0.00 88 1013.1
20260906011527 77 126 3.0 6.0 0.00 0.00 0.00 86 1013.1
20260906010045 78 105 4.0 8.0 0.00 0.00 0.00 85 1013.0
20260906004558 79 152 5.0 7.0 0.00 0.00 0.00 83 1012.9
20260906003006 80 126 6.0 12.0 0.00 0.00 0.00 81 1012.6
20260906001516 81 123 6.0 13.0 0.00 0.00 0.00 79 1012.3
20260906000030 82 132 8.0 11.0 0.00 0.00 0.00 78 1012.0
20260905234551 82 126 9.0 15.0 0.00 0.00 0.00 75 1011.6
20260905233052 84 124 7.0 17.0 0.00 0.00 0.00 74 1011.4
20260905231508 84 144 9.0 13.0 0.00 0.00 0.00 73 1011.2
20260905230027 85 138 9.0 16.0 0.00 0.00 0.00 70 1011.2
20260905224539 85 14 8.0 12.0 0.00 0.00 0.00 68 1011.5
20260905223046 86 121 8.0 15.0 0.00 0.00 0.00 65 1011.5
20260905221556 86 234 7.0 11.0 0.00 0.00 0.00 63 1011.3
20260905220013 86 103 8.0 14.0 0.00 0.00 0.00 64 1011.4
20260905214522 86 71 8.0 13.0 0.00 0.00 0.00 62 1011.2
20260905213029 86 121 7.0 14.0 0.00 0.00 0.00 58 1011.3
20260905211536 87 141 7.0 14.0 0.00 0.00 0.00 55 1011.7
20260905210051 87 195 7.0 13.0 0.00 0.00 0.00 59 1012.1
20260905204510 86 53 4.0 14.0 0.00 0.00 0.00 55 1012.2
20260905203024 87 117 5.0 11.0 0.00 0.00 0.00 57 1012.3
20260905201536 86 76 4.0 10.0 0.00 0.00 0.00 58 1012.4
20260905200041 85 129 4.0 12.0 0.00 0.00 0.00 58 1012.7
20260905193053 85 157 5.0 12.0 0.00 0.00 0.00 60 1012.8